[[{"header":{"parameterUnit":"m.s-1","parameterCategory":1,"la1":30.2991,"la2":30.254,"lo1":-89.0895,"lo2":-89.0444,"dy":0.0017,"dx":0.0017,"nx":28,"ny":28,"refTime":"2023-07-26T09:00:00:Z","depth":0,"parameterNumber":2,"parameterNumberName":"U-component_of_WINDS"},"data":[0,0,0,0,0,0,0,0,0,0,0,0,0,0,0,0,0,0,0,0,0,0,0,0,0,0,0,0,0,0,0,0,0,0,0,0,0,0,0,0,0,0,0,0,0,0,0,0,0,0,0,0,0,0,0,0,0,0,-0.4577,-0.4576,0,-0.4507,-0.4506,-0.4505,-0.4442,-0.4441,-0.444,-0.4439,-0.4369,-0.4368,-0.4366,0,0,0,0,0,0,0,0,0,0,0,0,0,-0.4657,-0.4656,-0.4577,-0.4576,-0.4575,-0.4507,-0.4506,-0.4505,-0.4442,-0.4441,-0.444,-0.4439,-0.4369,-0.4368,-0.4366,0,0,0,0,0,0,0,0,0,0,0,0,0,-0.4608,-0.4656,-0.4577,-0.4535,-0.4531,-0.4507,-0.4506,-0.4505,-0.4442,-0.4441,-0.444,-0.4439,-0.437,-0.4368,-0.4366,-0.4378,0,0,-0.4361,-0.436,0,0,0,0,0,0,0,0,-0.4611,-0.4605,-0.4542,-0.4538,-0.4533,-0.4482,-0.4508,-0.4462,-0.4442,-0.4476,-0.4439,-0.4438,-0.4407,-0.4402,-0.4392,-0.4375,-0.4372,-0.4361,-0.436,-0.4359,-0.4358,0,0,0,0,0,0,0,-0.4615,-0.4608,-0.4549,-0.4542,-0.4536,-0.452,-0.4512,-0.4499,-0.4449,-0.4473,-0.4468,-0.446,-0.4405,-0.4394,-0.439,-0.4371,-0.4361,-0.4359,-0.4358,-0.4357,-0.4358,-0.4359,0,0,0,0,0,0,-0.4624,-0.4611,-0.4551,-0.4547,-0.457,-0.452,-0.4511,-0.4499,-0.4449,-0.444,-0.4461,-0.4458,-0.4397,-0.4392,-0.4387,-0.4396,-0.4359,-0.4357,-0.4356,-0.4357,-0.4358,-0.4359,0,0,0,0,0,0,-0.4626,-0.4619,-0.4554,-0.4578,-0.4568,-0.452,-0.4508,-0.4499,-0.4487,-0.444,-0.4431,-0.4459,-0.4396,-0.4389,-0.438,-0.4393,-0.4356,-0.4355,-0.4356,-0.4357,-0.4359,-0.4416,0,0,0,0,0,0,-0.4629,-0.4621,-0.4625,-0.4578,-0.4567,-0.4549,-0.4508,-0.4498,-0.4484,-0.4479,-0.4436,-0.4428,-0.4395,-0.4383,-0.4378,-0.439,-0.4353,-0.4354,-0.4356,-0.4358,-0.4413,-0.4419,-0.4425,0,0,0,0,0,-0.4632,-0.4645,-0.4625,-0.4618,-0.4571,-0.455,-0.4544,-0.4505,-0.4486,-0.4489,-0.4459,-0.4429,-0.4392,-0.4383,-0.4377,-0.4388,-0.4353,-0.4356,-0.4358,-0.441,-0.4418,-0.4425,0,0,0,0,0,0,-0.4695,-0.4638,-0.4616,-0.4614,-0.4587,-0.4539,-0.4543,-0.4515,-0.4493,-0.4489,-0.4442,-0.4433,-0.4429,-0.4407,-0.4398,-0.4396,-0.4369,-0.437,-0.441,-0.4417,-0.4423,-0.4429,-0.4352,0,0,0,0,0,-0.4708,-0.4695,-0.4646,-0.4649,-0.4637,-0.4592,-0.4581,-0.4554,-0.4524,-0.4513,-0.4481,-0.4454,-0.4436,-0.4426,-0.4407,-0.4409,-0.4398,-0.4414,-0.442,-0.4425,-0.4427,-0.4425,-0.4431,-0.4367,-0.4367,-0.4367,0,0,-0.4737,-0.4704,-0.4699,-0.4661,-0.4637,-0.4624,-0.4583,-0.4572,-0.4562,-0.4511,-0.45,-0.4476,-0.4443,-0.4439,-0.4436,-0.4421,-0.4442,-0.4428,-0.4433,-0.4432,-0.4428,-0.4434,-0.444,-0.4369,-0.4368,-0.4368,0,0,-0.4781,-0.4755,-0.4754,-0.473,-0.4694,-0.4664,-0.4664,-0.4619,-0.4601,-0.4589,-0.455,-0.4538,-0.4508,-0.4485,-0.447,-0.4504,-0.4475,-0.4499,-0.4531,-0.453,-0.4535,-0.4539,-0.455,-0.4555,-0.4501,-0.4501,-0.4501,0,-0.4821,-0.48,-0.4757,-0.4748,-0.4732,-0.4684,-0.4682,-0.4661,-0.4621,-0.4611,-0.4595,-0.4555,-0.453,-0.4519,-0.4527,-0.4517,-0.4514,-0.4504,-0.4537,-0.4541,-0.4545,-0.4555,-0.4559,-0.4504,-0.4504,-0.4503,-0.4503,0,-0.485,-0.4836,-0.484,-0.4801,-0.4785,-0.478,-0.4736,-0.4725,-0.4698,-0.467,-0.4658,-0.4625,-0.4597,-0.4593,-0.4567,-0.4578,-0.457,-0.4546,-0.4518,-0.4554,-0.4563,-0.4567,-0.4508,-0.4507,-0.4506,-0.4506,0,0,-0.4934,-0.487,-0.4872,-0.4853,-0.4808,-0.4796,-0.4788,-0.4761,-0.4752,-0.4725,-0.4717,-0.4692,-0.4669,-0.4652,-0.4623,-0.4622,-0.4649,-0.4598,-0.4596,-0.4608,-0.4658,-0.4675,-0.4681,-0.4629,-0.463,-0.463,-0.466,0,-0.4971,-0.4953,-0.4913,-0.4908,-0.4894,-0.4847,-0.484,-0.4811,-0.4784,-0.4768,-0.4738,-0.4721,-0.4692,-0.4681,-0.4678,-0.4646,-0.4658,-0.4644,-0.4621,-0.462,-0.463,-0.4685,-0.4704,-0.4734,-0.4663,-0.4664,-0.4664,0,-0.5012,-0.4987,-0.498,-0.4934,-0.4927,-0.4921,-0.4891,-0.4877,-0.4843,-0.4823,-0.4803,-0.477,-0.4758,-0.4732,-0.4714,-0.4705,-0.4693,-0.4676,-0.4676,-0.4673,-0.4645,-0.4683,-0.4743,-0.4747,-0.4669,-0.4669,-0.4668,0,-0.5073,-0.5037,-0.5028,-0.5013,-0.496,-0.4957,-0.4935,-0.49,-0.4885,-0.4859,-0.4849,-0.4823,-0.4808,-0.4788,-0.4749,-0.4734,-0.4735,-0.4706,-0.4718,-0.4719,-0.4721,-0.4721,-0.478,-0.4714,-0.4714,-0.4714,-0.4714,0,-0.5118,-0.5116,-0.5054,-0.5049,-0.5044,-0.4998,-0.4994,-0.4968,-0.4937,-0.4925,-0.4883,-0.4872,-0.4821,-0.4805,-0.4774,-0.4763,-0.4757,-0.474,-0.4732,-0.4744,-0.4746,-0.4736,-0.4733,-0.4715,-0.4715,-0.4714,-0.4714,0,-0.5186,-0.5145,-0.5131,-0.5081,-0.5068,-0.5067,-0.5024,-0.5017,-0.4986,-0.4971,-0.4965,-0.4917,-0.4895,-0.4854,-0.4821,-0.48,-0.4796,-0.4782,-0.4807,-0.4802,-0.4816,-0.4815,-0.4869,-0.4874,-0.4806,-0.4807,-0.4808,0,-0.5217,-0.5214,-0.5163,-0.5151,-0.513,-0.5113,-0.5097,-0.5051,-0.5036,-0.4997,-0.4994,-0.4968,-0.4946,-0.4913,-0.4875,-0.4849,-0.4834,-0.4854,-0.483,-0.4841,-0.4833,-0.4834,-0.4832,-0.486,-0.4861,-0.4862,-0.4863,0,-0.5278,-0.5257,-0.5236,-0.5207,-0.5189,-0.5164,-0.5137,-0.513,-0.5078,-0.5063,-0.504,-0.5022,-0.4987,-0.4962,-0.493,-0.4907,-0.4876,-0.487,-0.4872,-0.4884,-0.4898,-0.489,-0.4822,-0.487,-0.4869,-0.4868,-0.4868,-0.4868,-0.5328,-0.5322,-0.5284,-0.5262,-0.5236,-0.5211,-0.5201,-0.5169,-0.5148,-0.5116,-0.509,-0.5068,-0.5033,-0.4986,-0.4965,-0.4947,-0.4932,-0.4934,-0.4935,-0.4936,-0.494,-0.4901,-0.4941,-0.4941,-0.494,-0.494,-0.494,0,-0.5385,-0.5358,-0.5337,-0.53,-0.5282,-0.5253,-0.5222,-0.5208,-0.519,-0.5159,-0.5137,-0.5109,-0.5084,-0.5044,-0.5015,-0.5008,-0.4993,-0.5002,-0.5002,-0.4997,-0.4955,-0.4957,-0.5015,-0.5015,-0.5015,-0.5015,-0.5015,-0.5015,-0.5413,-0.5401,-0.5375,-0.535,-0.5323,-0.5301,-0.5285,-0.5261,-0.5237,-0.5207,-0.5186,-0.5159,-0.5124,-0.5093,-0.5068,-0.5056,-0.5048,-0.5061,-0.5046,-0.5007,-0.5,-0.4994,-0.4995,-0.506,-0.506,-0.5089,-0.5089,-0.5089]},{"header":{"parameterUnit":"m.s-1","parameterCategory":1,"la1":30.2991,"la2":30.254,"lo1":-89.0895,"lo2":-89.0444,"dy":0.0017,"dx":0.0017,"nx":28,"ny":28,"refTime":"2023-07-26T09:00:00:Z","depth":0,"parameterNumber":3,"parameterNumberName":"V-component_of_WINDS"},"data":[0,0,0,0,0,0,0,0,0,0,0,0,0,0,0,0,0,0,0,0,0,0,0,0,0,0,0,0,0,0,0,0,0,0,0,0,0,0,0,0,0,0,0,0,0,0,0,0,0,0,0,0,0,0,0,0,0,0,-2.498,-2.4982,0,-2.5131,-2.5133,-2.5135,-2.5172,-2.5171,-2.517,-2.5169,-2.5319,-2.5323,-2.5328,0,0,0,0,0,0,0,0,0,0,0,0,0,-2.472,-2.4724,-2.498,-2.4982,-2.4984,-2.5131,-2.5133,-2.5135,-2.5172,-2.5171,-2.517,-2.5169,-2.5317,-2.5323,-2.5329,0,0,0,0,0,0,0,0,0,0,0,0,0,-2.4848,-2.4726,-2.498,-2.502,-2.5026,-2.513,-2.5133,-2.5135,-2.5173,-2.5171,-2.517,-2.5168,-2.5315,-2.5322,-2.5329,-2.5403,0,0,-2.5352,-2.5355,0,0,0,0,0,0,0,0,-2.484,-2.4857,-2.5013,-2.5018,-2.5024,-2.5132,-2.5096,-2.5225,-2.5173,-2.5117,-2.5169,-2.5168,-2.5257,-2.5269,-2.53,-2.541,-2.5416,-2.5352,-2.5357,-2.536,-2.5362,0,0,0,0,0,0,0,-2.4832,-2.4851,-2.504,-2.5015,-2.5022,-2.503,-2.5046,-2.512,-2.5193,-2.5121,-2.5125,-2.5142,-2.526,-2.5293,-2.5304,-2.5418,-2.5352,-2.5358,-2.5363,-2.5366,-2.5595,-2.5597,0,0,0,0,0,0,-2.4816,-2.4843,-2.5035,-2.5044,-2.4927,-2.5035,-2.5054,-2.5098,-2.5192,-2.5205,-2.5143,-2.5143,-2.5281,-2.5296,-2.5309,-2.5402,-2.536,-2.5367,-2.5371,-2.5594,-2.5596,-2.5598,0,0,0,0,0,0,-2.4811,-2.4833,-2.5029,-2.4945,-2.497,-2.5042,-2.5091,-2.5102,-2.5135,-2.5209,-2.5221,-2.5164,-2.5281,-2.5299,-2.538,-2.5407,-2.537,-2.5376,-2.5592,-2.5594,-2.5597,-2.5586,0,0,0,0,0,0,-2.4803,-2.4831,-2.486,-2.4945,-2.4975,-2.5098,-2.5093,-2.5106,-2.5149,-2.515,-2.5232,-2.5244,-2.5281,-2.5369,-2.5387,-2.5416,-2.5382,-2.559,-2.5593,-2.5596,-2.5584,-2.5588,-2.5591,0,0,0,0,0,-2.4794,-2.485,-2.4862,-2.4885,-2.5013,-2.5099,-2.5116,-2.5159,-2.5151,-2.518,-2.5228,-2.5241,-2.5402,-2.5377,-2.5397,-2.543,-2.5588,-2.5592,-2.5596,-2.5582,-2.5587,-2.5591,0,0,0,0,0,0,-2.4764,-2.4862,-2.4876,-2.4962,-2.5022,-2.5105,-2.5144,-2.5163,-2.5225,-2.5224,-2.5273,-2.5291,-2.5368,-2.5407,-2.5378,-2.5506,-2.5495,-2.5503,-2.5477,-2.5482,-2.5486,-2.5474,-2.5388,0,0,0,0,0,-2.4768,-2.4832,-2.4913,-2.4981,-2.5011,-2.5072,-2.5111,-2.514,-2.5203,-2.5228,-2.5281,-2.5341,-2.5405,-2.5446,-2.5509,-2.559,-2.5608,-2.5623,-2.5626,-2.5629,-2.5635,-2.568,-2.5687,-2.5611,-2.561,-2.561,0,0,-2.4776,-2.4837,-2.4874,-2.4976,-2.5026,-2.5089,-2.5093,-2.5159,-2.5206,-2.5238,-2.5317,-2.5359,-2.5429,-2.551,-2.5548,-2.5545,-2.566,-2.5634,-2.5635,-2.564,-2.5685,-2.5692,-2.5699,-2.5613,-2.5613,-2.5612,0,0,-2.4823,-2.4876,-2.4938,-2.4989,-2.5066,-2.5107,-2.5122,-2.5203,-2.5232,-2.5313,-2.5339,-2.5394,-2.5503,-2.5552,-2.5591,-2.5658,-2.5673,-2.5677,-2.5694,-2.5738,-2.5744,-2.575,-2.5772,-2.578,-2.5683,-2.5683,-2.5683,0,-2.4822,-2.492,-2.4968,-2.5033,-2.5077,-2.5112,-2.5174,-2.5221,-2.5313,-2.5342,-2.5337,-2.5475,-2.5525,-2.5618,-2.5634,-2.5665,-2.5683,-2.5667,-2.574,-2.5746,-2.5752,-2.5774,-2.5782,-2.5683,-2.5683,-2.5683,-2.5683,0,-2.4915,-2.4982,-2.5023,-2.5114,-2.5163,-2.5226,-2.5283,-2.5326,-2.535,-2.5391,-2.5473,-2.5534,-2.561,-2.5635,-2.5658,-2.5731,-2.5727,-2.573,-2.572,-2.5758,-2.578,-2.5789,-2.5683,-2.5683,-2.5683,-2.5683,0,0,-2.4945,-2.5064,-2.5078,-2.5119,-2.5207,-2.5259,-2.5324,-2.5401,-2.5436,-2.5499,-2.5554,-2.5646,-2.5651,-2.5695,-2.5725,-2.5763,-2.5811,-2.5762,-2.5765,-2.5768,-2.5894,-2.589,-2.5899,-2.5823,-2.5824,-2.5826,-2.5888,0,-2.5002,-2.5122,-2.5167,-2.5264,-2.5326,-2.536,-2.5417,-2.5476,-2.5516,-2.5573,-2.5617,-2.5682,-2.5683,-2.571,-2.575,-2.5797,-2.5837,-2.5793,-2.5872,-2.5874,-2.5852,-2.5911,-2.5907,-2.5962,-2.5897,-2.5899,-2.59,0,-2.5084,-2.515,-2.5253,-2.5334,-2.5362,-2.5412,-2.5486,-2.5541,-2.5608,-2.5635,-2.5685,-2.5713,-2.5781,-2.5768,-2.5862,-2.5831,-2.5866,-2.5894,-2.5897,-2.5905,-2.5888,-2.5919,-2.5981,-2.5989,-2.5914,-2.5913,-2.5912,0,-2.5094,-2.5209,-2.5286,-2.532,-2.5417,-2.5451,-2.5493,-2.5559,-2.5602,-2.5666,-2.5695,-2.5765,-2.5803,-2.5856,-2.5902,-2.5888,-2.5991,-2.5981,-2.6013,-2.6012,-2.6032,-2.603,-2.61,-2.6057,-2.6057,-2.6057,-2.6056,0,-2.5152,-2.5213,-2.5292,-2.5339,-2.5409,-2.546,-2.5528,-2.5571,-2.563,-2.5685,-2.5719,-2.5769,-2.5827,-2.5885,-2.5921,-2.5992,-2.6009,-2.6031,-2.604,-2.6028,-2.6025,-2.605,-2.6047,-2.6059,-2.6058,-2.6058,-2.6058,0,-2.5175,-2.523,-2.5316,-2.5401,-2.5424,-2.5472,-2.5544,-2.559,-2.5633,-2.5702,-2.5721,-2.5787,-2.5857,-2.5908,-2.5997,-2.6022,-2.6098,-2.6107,-2.6075,-2.6079,-2.6108,-2.6104,-2.6196,-2.621,-2.6158,-2.6159,-2.6159,0,-2.5207,-2.5256,-2.5347,-2.5387,-2.5429,-2.5493,-2.5538,-2.5591,-2.5636,-2.5717,-2.5753,-2.5826,-2.5886,-2.5996,-2.6051,-2.6119,-2.613,-2.6157,-2.614,-2.6126,-2.6129,-2.6125,-2.6129,-2.6159,-2.6159,-2.6159,-2.6159,0,-2.5258,-2.5284,-2.5348,-2.5422,-2.5475,-2.5536,-2.5596,-2.5627,-2.569,-2.5739,-2.5812,-2.5859,-2.5952,-2.6023,-2.6097,-2.6138,-2.6159,-2.6165,-2.6176,-2.6163,-2.6142,-2.6153,-2.6081,-2.6162,-2.6162,-2.6162,-2.6161,-2.6161,-2.5286,-2.5331,-2.5403,-2.5473,-2.5525,-2.5581,-2.5629,-2.5679,-2.5741,-2.5822,-2.5849,-2.5924,-2.599,-2.6093,-2.6135,-2.6193,-2.6192,-2.6208,-2.6212,-2.6215,-2.6213,-2.6134,-2.6207,-2.6207,-2.6207,-2.6207,-2.6207,0,-2.5338,-2.5387,-2.5451,-2.5536,-2.5591,-2.5609,-2.5678,-2.5722,-2.5788,-2.585,-2.5909,-2.5993,-2.6062,-2.6123,-2.6195,-2.623,-2.6241,-2.6247,-2.6244,-2.6253,-2.621,-2.6194,-2.6237,-2.6237,-2.6237,-2.6237,-2.6237,-2.6237,-2.5372,-2.5449,-2.5483,-2.5585,-2.5633,-2.5708,-2.5745,-2.5797,-2.5846,-2.5939,-2.5998,-2.6038,-2.6099,-2.6176,-2.624,-2.6256,-2.628,-2.6283,-2.6301,-2.626,-2.6256,-2.6253,-2.6237,-2.6288,-2.6288,-2.6339,-2.6339,-2.634]}]]